Regional Weather Roundup
Issued by NWS

Home | Current Version | Previous Version | Text Only | Print | Product List | Glossary On
Versions: 1 2 3 4 5 6 7 8 9 10 11 12 13 14 15 16 17 18 19 20 21 22 23 24 25 26 27 28 29 30 31 32 33 34 35 36 37 38 39 40 41 42 43 44 45 46 47 48 49 50
000
ASUS43 KOAX 260303
RWRNE

WEATHER ROUNDUP FOR NEBRASKA
NATIONAL WEATHER SERVICE OMAHA NE
1000 PM CDT FRI MAY 25 2018

NOTES: SATELLITE DATA IS BEING USED TO AUGMENT CLOUD COVER ABOVE
       12000 FEET.
       "FAIR" INDICATES FEW OR NO CLOUDS BELOW 12,000 FEET WITH NO
       SIGNIFICANT WEATHER AND/OR OBSTRUCTIONS TO VISIBILITY.


NEZ001>004-019>022-054>056-260400-
NEBRASKA PANHANDLE

CITY           SKY/WX    TMP DP  RH WIND       PRES   REMARKS
SCOTTSBLUFF    CLEAR     71  57  61 NE12      29.92R
ALLIANCE       CLEAR     63  58  83 NE3       29.92R
CHADRON        CLEAR     65  59  81 SW5       29.89R
GORDON         FAIR      67  57  71 CALM      29.90R
KIMBALL        CLEAR     65  50  59 E8        29.99S
SIDNEY         CLEAR     65  52  62 E6        29.96R
$$

NEZ057>060-069>072-079>082-260400-
SOUTHWEST NEBRASKA

CITY           SKY/WX    TMP DP  RH WIND       PRES   REMARKS
NORTH PLATTE   CLEAR     72  56  57 CALM      29.85R
IMPERIAL       CLEAR     71  50  47 E8        29.88S
LEXINGTON      CLEAR     72  59  63 CALM      29.83S
MCCOOK         CLEAR     73  57  57 SW8       29.85R
OGALLALA       CLEAR     67  59  74 CALM      29.88S
$$

NEZ005>010-023>029-035>040-094-260400-
NORTH CENTRAL NEBRASKA

CITY           SKY/WX    TMP DP  RH WIND       PRES   REMARKS
VALENTINE      CLEAR     73  60  63 CALM      29.84R
AINSWORTH      CLEAR     73  63  71 CALM      29.85R
BROKEN BOW     CLEAR     73  62  68 N6        29.82S
O`NEILL        CLEAR     79  60  51 N3        29.81R
ORD            CLEAR     72  62  71 SW3       29.79R
THEDFORD       CLEAR     75  56  51 CALM      29.87R
$$

NEZ041-046>049-061>064-073>077-083>087-260400-
SOUTH CENTRAL NEBRASKA

CITY           SKY/WX    TMP DP  RH WIND       PRES   REMARKS
GRAND ISLAND   CLEAR     78  58  49 S7        29.79R
AURORA         CLEAR     79  60  51 SW8       29.79R
HASTINGS       CLOUDY    79  61  53 SW3       29.81R
HEBRON         CLOUDY    81  64  56 SW9       29.78S
HOLDREGE       CLEAR     79  60  51 S7        29.82S
KEARNEY        CLEAR     78  63  59 S7        29.81S
YORK           PTCLDY    77  63  61 W5        29.78R
$$

NEZ011>018-030>034-042>045-260400-
NORTHEAST NEBRASKA

CITY           SKY/WX    TMP DP  RH WIND       PRES   REMARKS
NORFOLK        CLEAR     73  58  59 CALM      29.76R
ALBION         CLEAR     71  65  82 CALM      29.78R
BLAIR          MOCLDY    77  65  67 N3        29.75R
COLUMBUS       PTCLDY    78  61  55 CALM      29.77R
FREMONT        CLOUDY    81  59  47 E3        29.74R
TEKAMAH        CLOUDY    79  65  62 S6        29.73R
WAYNE          PTCLDY    74  56  52 CALM      29.76R
$$

NEZ050>053-065>068-078-088>093-260400-
SOUTHEAST NEBRASKA

CITY           SKY/WX    TMP DP  RH WIND       PRES   REMARKS
LINCOLN        PTCLDY    79  58  48 CALM      29.75R
OMAHA EPPLEY   MOCLDY    76  68  76 NW3       29.73R
BEATRICE       CLEAR     83  66  55 SW9       29.77R
FALLS CITY     CLEAR     82  62  50 S9        29.76R
NEBRASKA CITY  PTCLDY    80  63  54 SW8       29.75R
PLATTSMOUTH    PTCLDY    81  56  41 SW5       29.74R
$$

NEZ044-045-051>053-067-260400-
OMAHA AREA

CITY           SKY/WX    TMP DP  RH WIND       PRES   REMARKS
OMAHA EPPLEY   MOCLDY    76  68  76 NW3       29.73R
BLAIR          MOCLDY    77  65  67 N3        29.75R
FREMONT        CLOUDY    81  59  47 E3        29.74R
MILLARD        MOCLDY    80  65  61 CALM      29.74R
OFFUTT AFB     MOCLDY    71  64  78 CALM      29.72R
PLATTSMOUTH    PTCLDY    81  56  41 SW5       29.74R
WAHOO          FAIR      79  55  43 CALM      29.74R
$$




USA.gov is the U.S. government's official web portal to all federal, state and local government web resources and services.